When you browse on this site, cookies collect data to enhance your experience and personalize the content and advertising you see.
Visit our Privacy Policy to learn more. By continuing to use the site, you agree to this use of cookies and data.
EN

Hourly Weather Krutoe

Today, 7 August, Friday

Time Temperature Precipitation Wind Pressure Humidity
00:00 +20°C° 0 mm 2 mps 753 mmHg 75%
01:00 +20°C° 0 mm 2 mps 753 mmHg 77%
02:00 +19°C° 0 mm 2 mps 754 mmHg 79%
03:00 +19°C° 0 mm 2 mps 754 mmHg 83%
04:00 +19°C° 0 mm 3 mps 754 mmHg 87%
05:00 +19°C° 0 mm 3 mps 754 mmHg 91%
06:00 +20°C° 0 mm 3 mps 754 mmHg 86%
07:00 +22°C° 0 mm 4 mps 754 mmHg 81%
08:00 +23°C° 0 mm 4 mps 754 mmHg 76%
09:00 +25°C° 0 mm 5 mps 754 mmHg 70%
10:00 +26°C° 0 mm 5 mps 754 mmHg 65%
11:00 +26°C° 0 mm 5 mps 754 mmHg 60%
12:00 +27°C° 0 mm 5 mps 754 mmHg 58%
13:00 +27°C° 0 mm 5 mps 754 mmHg 57%
14:00 +27°C° 0 mm 5 mps 754 mmHg 55%
15:00 +26°C° 0 mm 5 mps 754 mmHg 57%
16:00 +26°C° 0 mm 5 mps 753 mmHg 59%
17:00 +25°C° 0 mm 5 mps 753 mmHg 61%
18:00 +23°C° 0 mm 4 mps 753 mmHg 66%
19:00 +21°C° 0 mm 4 mps 753 mmHg 70%
20:00 +19°C° 0 mm 3 mps 754 mmHg 74%
21:00 +19°C° 0 mm 3 mps 754 mmHg 76%
22:00 +18°C° 0 mm 3 mps 754 mmHg 77%
23:00 +18°C° 0 mm 3 mps 754 mmHg 78%

Tomorrow, 8 August, Saturday

Time Temperature Precipitation Wind Pressure Humidity
00:00 +17°C° 0 mm 3 mps 753 mmHg 79%
01:00 +17°C° 0 mm 3 mps 753 mmHg 80%
02:00 +16°C° 0 mm 3 mps 753 mmHg 81%
03:00 +16°C° 0 mm 3 mps 753 mmHg 82%
04:00 +16°C° 0 mm 3 mps 753 mmHg 83%
05:00 +16°C° 0 mm 3 mps 753 mmHg 84%
06:00 +17°C° 0 mm 3 mps 753 mmHg 78%
07:00 +19°C° 0 mm 4 mps 753 mmHg 72%
08:00 +21°C° 0 mm 4 mps 753 mmHg 66%
09:00 +22°C° 0 mm 4 mps 753 mmHg 62%
10:00 +23°C° 0 mm 4 mps 753 mmHg 57%
11:00 +25°C° 0 mm 4 mps 753 mmHg 53%
12:00 +26°C° 0 mm 4 mps 752 mmHg 52%
13:00 +26°C° 0 mm 4 mps 752 mmHg 50%
14:00 +26°C° 0 mm 4 mps 752 mmHg 49%
15:00 +26°C° 0 mm 4 mps 751 mmHg 52%
16:00 +26°C° 0 mm 4 mps 751 mmHg 55%
17:00 +25°C° 0 mm 3 mps 751 mmHg 57%
18:00 +24°C° 0 mm 3 mps 751 mmHg 63%
19:00 +21°C° 0 mm 3 mps 751 mmHg 69%
20:00 +20°C° 0 mm 2 mps 751 mmHg 75%
21:00 +19°C° 0 mm 2 mps 750 mmHg 77%
22:00 +19°C° 0 mm 2 mps 750 mmHg 78%
23:00 +18°C° 0 mm 2 mps 750 mmHg 79%

Day after tomorrow, 9 August, Sunday

Time Temperature Precipitation Wind Pressure Humidity
00:00 +18°C° 0 mm 2 mps 750 mmHg 82%
01:00 +17°C° 0 mm 2 mps 750 mmHg 85%
02:00 +17°C° 0 mm 2 mps 750 mmHg 88%
03:00 +17°C° 0 mm 2 mps 749 mmHg 89%
04:00 +17°C° 0 mm 2 mps 749 mmHg 90%
05:00 +17°C° 0 mm 2 mps 749 mmHg 92%
06:00 +18°C° 0 mm 3 mps 749 mmHg 85%
07:00 +20°C° 0 mm 3 mps 749 mmHg 78%
08:00 +22°C° 0 mm 3 mps 749 mmHg 71%
09:00 +24°C° 0 mm 3 mps 749 mmHg 66%
10:00 +25°C° 0 mm 4 mps 749 mmHg 60%
11:00 +26°C° 0 mm 4 mps 749 mmHg 55%
12:00 +26°C° 0 mm 4 mps 749 mmHg 54%
13:00 +26°C° 0 mm 4 mps 749 mmHg 52%
14:00 +27°C° 0 mm 4 mps 748 mmHg 51%
15:00 +26°C° 0 mm 4 mps 748 mmHg 52%
16:00 +26°C° 0 mm 3 mps 748 mmHg 54%
17:00 +26°C° 0 mm 3 mps 748 mmHg 56%
18:00 +24°C° 0 mm 3 mps 748 mmHg 61%
19:00 +21°C° 0 mm 2 mps 748 mmHg 65%
20:00 +20°C° 0 mm 2 mps 748 mmHg 70%
21:00 +19°C° 0 mm 2 mps 748 mmHg 72%
22:00 +19°C° 0 mm 2 mps 748 mmHg 73%
23:00 +19°C° 0 mm 1 mps 748 mmHg 75%

10 August, Monday

Time Temperature Precipitation Wind Pressure Humidity
00:00 +19°C° 0 mm 1 mps 748 mmHg 76%
01:00 +17°C° 0 mm 2 mps 748 mmHg 77%
02:00 +17°C° 0 mm 2 mps 748 mmHg 78%
03:00 +17°C° 0 mm 2 mps 748 mmHg 81%
04:00 +17°C° 0 mm 2 mps 748 mmHg 84%
05:00 +17°C° 0 mm 2 mps 748 mmHg 87%
06:00 +18°C° 0 mm 2 mps 748 mmHg 82%
07:00 +20°C° 0 mm 2 mps 748 mmHg 77%
08:00 +21°C° 0 mm 3 mps 748 mmHg 72%
09:00 +22°C° 0.1 mm 3 mps 748 mmHg 66%
10:00 +23°C° 0.1 mm 4 mps 748 mmHg 60%
11:00 +25°C° 0.1 mm 4 mps 748 mmHg 54%
12:00 +26°C° 0 mm 4 mps 748 mmHg 53%
13:00 +26°C° 0 mm 4 mps 748 mmHg 51%
14:00 +26°C° 0 mm 4 mps 748 mmHg 49%
15:00 +25°C° 0 mm 4 mps 748 mmHg 51%
16:00 +25°C° 0 mm 4 mps 748 mmHg 53%
17:00 +23°C° 0 mm 4 mps 748 mmHg 55%
18:00 +22°C° 0 mm 3 mps 748 mmHg 60%
19:00 +20°C° 0 mm 3 mps 748 mmHg 64%
20:00 +18°C° 0 mm 2 mps 748 mmHg 69%
21:00 +18°C° 0 mm 2 mps 748 mmHg 70%
22:00 +18°C° 0 mm 1 mps 748 mmHg 72%
23:00 +18°C° 0 mm 1 mps 748 mmHg 73%

11 August, Tuesday

Time Temperature Precipitation Wind Pressure Humidity
00:00 +16°C° 0 mm 1 mps 748 mmHg 74%
01:00 +16°C° 0 mm 1 mps 748 mmHg 75%
02:00 +16°C° 0 mm 1 mps 748 mmHg 76%
03:00 +16°C° 0 mm 1 mps 748 mmHg 77%
04:00 +16°C° 0 mm 1 mps 748 mmHg 78%
05:00 +16°C° 0 mm 2 mps 748 mmHg 79%
06:00 +18°C° 0 mm 2 mps 748 mmHg 72%
07:00 +19°C° 0 mm 2 mps 748 mmHg 66%
08:00 +21°C° 0 mm 2 mps 747 mmHg 59%
09:00 +23°C° 0 mm 2 mps 747 mmHg 57%
10:00 +25°C° 0 mm 2 mps 747 mmHg 54%
11:00 +26°C° 0 mm 3 mps 747 mmHg 51%
12:00 +26°C° 0.1 mm 3 mps 747 mmHg 51%
13:00 +27°C° 0.1 mm 4 mps 746 mmHg 50%
14:00 +27°C° 0.1 mm 4 mps 746 mmHg 50%
15:00 +26°C° 0.6 mm 3 mps 746 mmHg 56%
16:00 +25°C° 0.6 mm 3 mps 746 mmHg 63%
17:00 +24°C° 0.6 mm 2 mps 745 mmHg 69%
18:00 +23°C° 0.7 mm 2 mps 745 mmHg 73%
19:00 +21°C° 0.7 mm 2 mps 745 mmHg 77%
20:00 +20°C° 0.7 mm 2 mps 745 mmHg 81%
21:00 +19°C° 0 mm 2 mps 745 mmHg 83%
22:00 +19°C° 0 mm 2 mps 745 mmHg 86%
23:00 +18°C° 0 mm 2 mps 744 mmHg 88%

12 August, Wednesday

Time Temperature Precipitation Wind Pressure Humidity
00:00 +17°C° 0 mm 2 mps 744 mmHg 90%
01:00 +17°C° 0 mm 3 mps 744 mmHg 92%
02:00 +16°C° 0 mm 3 mps 744 mmHg 94%
03:00 +16°C° 0 mm 3 mps 744 mmHg 93%
04:00 +14°C° 0 mm 3 mps 744 mmHg 92%
05:00 +14°C° 0 mm 3 mps 744 mmHg 91%
06:00 +14°C° 0 mm 3 mps 744 mmHg 86%
07:00 +16°C° 0 mm 3 mps 744 mmHg 82%
08:00 +17°C° 0 mm 4 mps 744 mmHg 77%
09:00 +18°C° 0 mm 4 mps 744 mmHg 69%
10:00 +20°C° 0 mm 4 mps 744 mmHg 61%
11:00 +21°C° 0 mm 4 mps 744 mmHg 53%
12:00 +21°C° 0.1 mm 4 mps 743 mmHg 53%
13:00 +21°C° 0.1 mm 5 mps 743 mmHg 54%
14:00 +21°C° 0.1 mm 5 mps 743 mmHg 55%
15:00 +21°C° 0.1 mm 5 mps 743 mmHg 58%
16:00 +20°C° 0.1 mm 5 mps 744 mmHg 61%
17:00 +20°C° 0.1 mm 5 mps 744 mmHg 65%
18:00 +19°C° 0.2 mm 5 mps 744 mmHg 72%
19:00 +16°C° 0.2 mm 6 mps 744 mmHg 80%
20:00 +15°C° 0.2 mm 7 mps 744 mmHg 87%
21:00 +14°C° 0 mm 6 mps 744 mmHg 86%
22:00 +14°C° 0 mm 6 mps 745 mmHg 85%
23:00 +14°C° 0 mm 6 mps 745 mmHg 83%
Show more